Tracking 17855 objects as of 26-September-2016
HD Live streaming from Space Station
objects crossing your sky now

UNISAT 3

Track UNISAT 3 now!
10-day predictions
UNISAT 3 is classified as:


NORAD ID: 28373
Int'l Code: 2004-025H
Perigee: 699.7 km
Apogee: 796.5 km
Inclination: 98.3 °
Period: 99.6 minutes
Semi major axis: 7119 km
RCS: 0.116 m2 (medium)
Launch date: June 29, 2004
Source: Italy (IT)
Launch site: TYURATAM MISSILE AND SPACE COMPLEX (TTMTR)

Unisat 3 is an Italian, scientific microsatellite (12 kg) designed to test solar cells in the space environment.
Your satellite tracking list
Your tracking list is empty





NASA's NSSDC Master Catalog

Two Line Element Set (TLE):
1 28373U 04025H   16269.41743861  .00000133  00000-0  49644-4 0  9990
2 28373  98.3032 210.5978 0067976 294.3017  65.1086 14.45330332645653
Source of the keplerian elements: AFSPC

N2YO: 601